www.pogodaiklimat.ru

Погода и климат >> Архив погоды >> Австралия >> Marree Aero


ПОГОДА в Marree Aero

  • Прогноз погоды в Marree Aero
  • Монитор погоды в Marree Aero
  • Климат города

АРХИВ ПОГОДЫ в Marree Aero

Время (UTC), дата Ветер
(напр.,м/с)
 
Видим.   Явления Облачность Т
(С)
Тd
(С)
f
(%)
Тe
(С)
Тes
(С)
Комфортность P
(гПа)
Po
(гПа)
Тmin
(С)
Tmax
(С)
R
(мм)
R24
(мм)
S
(см)
14 17.06 Ю 5 н/о н/о +13.5 +5.9 60 +12 +12 1027.1 1020.9
13 17.06 Ю 7 н/о н/о +14.3 +5.7 56 +12 +12 1026.8 1020.6
15 17.06 ЮВ 4 н/о н/о +12.4 +5.6 63 +11 +11 1027.4 1021.2
16 17.06 В 4 н/о н/о +10.1 +4.7 69 +8 +8 1027.5 1021.3
17 17.06 СВ 3 н/о н/о +9.1 +4.7 74 +7 +7 1027.4 1021.2
18 17.06 В 5 н/о н/о +10.1 +5.3 72 +7 +7 1027.4 1021.2
20 17.06 СВ 4 н/о н/о +6.5 +3.1 79 +3 +3 1028.0 1021.8
19 17.06 Ю 5 н/о н/о +8.6 +4.2 74 +5 +5 1027.4 1021.2
21 17.06 Ю 4 н/о н/о +5.7 +3.0 83 +2 +2 1028.8 1022.6
22 17.06 В 4 н/о н/о +5.5 +3.0 84 +2 +2 1029.7 1023.5
23 17.06 Ю 6 н/о н/о +11.4 +5.5 67 +9 +9 1030.2 1024.0
00 18.06 ЮВ 6 н/о н/о +15.3 +6.1 54 +14 +14 1030.8 1024.6
02 18.06 С 7 н/о н/о +18.0 +5.6 44 +17 +17 1030.7 1024.5
01 18.06 ЮВ 7 н/о н/о +17.1 +6.3 49 +16 +16 1031.0 1024.8
03 18.06 В 7 н/о н/о +19.5 +5.9 41 +20 +20 1029.7 1023.5
04 18.06 В 6 н/о н/о +20.1 +5.7 39 +21 +21 комфорт 1028.5 1022.3
05 18.06 ЮВ 5 н/о н/о +20.1 +5.4 38 +21 +21 комфорт 1027.8 1021.6
06 18.06 СВ 7 н/о н/о +20.2 +5.1 37 +20 +20 1027.5 1021.3
08 18.06 В 4 н/о н/о +17.8 +5.1 43 +18 +18 1028.1 1021.9
07 18.06 С 6 н/о н/о +19.7 +5.4 39 +20 +20 1027.6 1021.4
09 18.06 ЮВ 3 н/о н/о +14.0 +3.8 50 +13 +13 1028.7 1022.5
10 18.06 С 4 н/о н/о +12.8 +4.0 55 +11 +11 1029.2 1023.0
11 18.06 С 4 н/о н/о +11.0 +3.3 59 +9 +9 1029.6 1023.4
12 18.06 ЮВ 2 н/о н/о +9.8 +2.9 62 +8 +8 1030.1 1023.9
14 18.06 ЮВ 5 н/о н/о +9.1 +3.7 69 +6 +6 1029.9 1023.7
13 18.06 В 3 н/о н/о +9.9 +3.9 66 +8 +8 1030.2 1024.0
15 18.06 Ю 4 н/о н/о +9.0 +4.0 71 +6 +6 1029.7 1023.5
16 18.06 Ю 5 н/о н/о +9.6 +4.6 71 +7 +7 1029.6 1023.4
17 18.06 С 5 н/о н/о +6.7 +2.8 76 +3 +3 1029.4 1023.2
18 18.06 С 5 н/о н/о +5.6 +2.6 81 +1 +1 1029.1 1022.9
20 18.06 С 4 н/о н/о +4.5 +3.2 91 0 0 1029.5 1023.3
19 18.06 С 4 н/о н/о +4.9 +2.9 87 +1 +1 1029.1 1022.9
21 18.06 С 5 н/о н/о +5.0 +4.0 93 0 0 1029.9 1023.7
22 18.06 С 5 н/о н/о +6.1 +5.1 93 +2 +2 1030.5 1024.3
23 18.06 СВ 4 н/о н/о +9.9 +5.3 73 +7 +7 1031.0 1024.8
00 19.06 С 4 н/о н/о +13.5 +5.9 60 +12 +12 1031.4 1025.2
02 19.06 В 7 н/о н/о +17.8 +5.7 45 +17 +17 1030.1 1023.9
01 19.06 С 5 н/о н/о +16.0 +6.2 52 +15 +15 1031.0 1024.8
03 19.06 В 7 н/о н/о +19.4 +5.8 41 +19 +19 1029.0 1022.8
04 19.06 В 7 н/о н/о +21.3 +4.0 32 +22 +22 комфорт 1027.9 1021.7
05 19.06 В 8 н/о н/о +21.6 +1.3 26 +21 +21 комфорт 1027.2 1021.0
06 19.06 В 7 н/о н/о +21.4 +1.1 26 +21 +21 комфорт 1026.9 1020.7
08 19.06 В 5 н/о н/о +18.3 +0.4 30 +18 +18 1027.0 1020.8
07 19.06 В 7 н/о н/о +20.7 0.0 25 +20 +20 1026.9 1020.7
09 19.06 В 4 н/о н/о +15.1 +0.2 36 +14 +14 1027.4 1021.2
10 19.06 В 3 н/о н/о +13.9 +0.5 40 +13 +13 1028.2 1022.0
11 19.06 ЮВ 5 н/о н/о +10.6 +0.6 50 +8 +8 1028.3 1022.1
12 19.06 Ю 5 н/о н/о +10.8 +1.9 54 +8 +8 1028.5 1022.3
14 19.06 СВ 5 н/о н/о +8.1 +1.3 62 +5 +5 1027.3 1021.1
13 19.06 СВ 4 н/о н/о +9.0 +1.7 60 +6 +6 1027.9 1021.7
15 19.06 Ю 4 н/о н/о +7.8 +1.2 63 +5 +5 1027.1 1020.9
16 19.06 СВ 3 н/о н/о +6.8 +1.1 67 +4 +4 1026.8 1020.6
17 19.06 ЮВ 3 н/о н/о +5.1 +0.3 71 +2 +2 1026.8 1020.6
18 19.06 ЮВ 4 н/о н/о +4.7 +0.5 74 +1 +1 1026.8 1020.6
20 19.06 ЮВ 4 н/о н/о +3.9 +0.4 78 -0 -0 1026.6 1020.4
19 19.06 ЮВ 4 н/о н/о +4.0 +0.2 76 0 0 1026.5 1020.3
21 19.06 ЮВ 4 н/о н/о +3.3 0.0 79 -1 -1 1026.8 1020.6
22 19.06 ЮВ 4 н/о н/о +4.9 +1.9 81 +1 +1 1027.4 1021.2
23 19.06 ЮВ 4 н/о н/о +7.5 +2.2 69 +5 +5 1027.7 1021.5
00 20.06 ЮВ 4 н/о н/о +13.0 +3.7 53 +11 +11 1028.3 1022.1
02 20.06 В 5 н/о н/о +19.0 +2.8 34 +19 +19 1027.4 1021.2
01 20.06 В 5 н/о н/о +16.9 +3.6 41 +16 +16 1028.4 1022.2
03 20.06 СВ 5 н/о н/о +20.4 +3.2 32 +21 +21 комфорт 1026.3 1020.1
04 20.06 С 4 н/о н/о +21.2 +3.0 30 +21 +21 комфорт 1025.4 1019.2
05 20.06 СВ 3 н/о н/о +21.9 +2.6 28 +22 +22 комфорт 1025.0 1018.8
06 20.06 ЮВ 2 н/о н/о +22.0 +2.2 27 +22 +22 комфорт 1024.7 1018.5
08 20.06 ЮВ 4 н/о н/о +18.3 +1.8 33 +18 +18 1025.1 1018.9
07 20.06 Ю 1 н/о н/о +21.3 +2.1 28 +21 +21 комфорт 1024.8 1018.6
09 20.06 ЮВ 4 н/о н/о +14.8 +1.0 39 +14 +14 1025.6 1019.4
10 20.06 ЮВ 4 н/о н/о +12.9 +0.6 43 +12 +12 1025.7 1019.5
11 20.06 ЮВ 4 н/о н/о +11.6 +1.0 48 +10 +10 1026.3 1020.1
12 20.06 ЮВ 5 н/о н/о +11.2 +0.6 48 +9 +9 1026.3 1020.1
14 20.06 Ю 4 н/о н/о +8.7 -0.3 53 +6 +6 1026.1 1019.9
13 20.06 Ю 4 н/о н/о +9.6 0.0 51 +7 +7 1026.3 1020.1
15 20.06 Ю 5 н/о н/о +9.3 0.0 52 +7 +7 1026.1 1019.9
16 20.06 Ю 5 н/о н/о +9.2 +0.6 55 +6 +6 1026.1 1019.9
17 20.06 В 5 н/о н/о +7.9 +0.6 60 +5 +5 1025.8 1019.6
18 20.06 СВ 4 н/о н/о +4.7 -1.3 65 +1 +1 1025.8 1019.6
20 20.06 ЮВ 5 н/о н/о +4.5 -0.7 69 0 0 1026.0 1019.8
19 20.06 С 5 н/о н/о +4.4 -1.2 67 0 0 1026.0 1019.8
21 20.06 ЮВ 5 н/о н/о +4.1 -0.7 71 -1 -1 1026.8 1020.6
22 20.06 ЮВ 4 н/о н/о +3.7 -1.1 71 -1 -1 1027.1 1020.9
23 20.06 ЮВ 5 н/о н/о +9.2 +0.1 53 +6 +6 1027.7 1021.5
00 21.06 ЮВ 5 н/о н/о +12.5 +0.6 44 +11 +11 1028.0 1021.8
02 21.06 В 5 н/о н/о +19.9 +1.8 30 +20 +20 1027.7 1021.5
01 21.06 В 4 н/о н/о +17.4 +1.0 33 +17 +17 1028.2 1022.0
03 21.06 В 5 н/о н/о +20.8 +2.6 30 +21 +21 комфорт 1026.2 1020.0
04 21.06 СВ 4 н/о н/о +21.1 +2.9 30 +21 +21 комфорт 1025.4 1019.2
05 21.06 СВ 3 н/о н/о +21.0 +2.3 29 +22 +22 комфорт 1024.8 1018.6
06 21.06 В 4 н/о н/о +21.4 +2.2 28 +21 +21 комфорт 1024.4 1018.2
08 21.06 В 4 н/о н/о +18.1 +0.7 31 +18 +18 1024.7 1018.5
07 21.06 В 4 н/о н/о +20.6 +1.5 28 +21 +21 комфорт 1024.6 1018.4
09 21.06 В 4 н/о н/о +14.9 0.0 36 +14 +14 1025.1 1018.9
10 21.06 СВ 4 н/о н/о +13.9 +0.2 39 +13 +13 1025.2 1019.0
11 21.06 В 4 н/о н/о +12.6 -0.3 41 +11 +11 1025.8 1019.6
12 21.06 В 4 н/о н/о +11.8 -0.7 42 +10 +10 1025.9 1019.7
14 21.06 В 3 н/о н/о +9.5 -1.8 45 +8 +8 1025.7 1019.5
13 21.06 В 3 н/о н/о +9.5 -1.5 46 +8 +8 1026.0 1019.8
15 21.06 В 4 н/о н/о +9.3 -1.4 47 +7 +7 1025.3 1019.1
16 21.06 ЮВ 4 н/о н/о +9.5 -1.2 47 +7 +7 1024.9 1018.7
17 21.06 ЮВ 4 н/о н/о +10.5 -0.9 45 +8 +8 1025.1 1018.9
18 21.06 В 5 н/о н/о +9.7 -1.1 47 +7 +7 1024.5 1018.3
20 21.06 ЮВ 3 н/о н/о +9.1 -0.8 50 +7 +7 1024.8 1018.6
19 21.06 СВ 5 н/о н/о +8.8 -1.0 50 +6 +6 1024.1 1018.0
21 21.06 С 5 н/о н/о +9.3 -0.3 51 +7 +7 1025.1 1018.9
22 21.06 СВ 4 н/о н/о +9.5 -0.1 51 +7 +7 1025.6 1019.4
23 21.06 С 3 н/о н/о +11.2 0.0 46 +10 +10 1026.0 1019.8
00 22.06 ЮВ 3 н/о н/о +14.4 +0.3 38 +14 +14 1026.2 1020.0
02 22.06 СВ 5 н/о н/о +18.8 +3.0 35 +19 +19 1025.2 1019.0
01 22.06 В 5 н/о н/о +17.3 +2.1 36 +17 +17 1026.2 1020.0
03 22.06 СВ 5 н/о н/о +20.1 +3.3 33 +20 +20 1023.8 1017.7
04 22.06 С 4 н/о н/о +21.0 +3.2 31 +22 +22 комфорт 1022.8 1016.7
05 22.06 С 3 н/о н/о +21.2 +2.5 29 +21 +21 комфорт 1022.0 1015.9
06 22.06 СЗ 2 н/о н/о +21.8 +2.5 28 +22 +22 комфорт 1021.9 1015.8
08 22.06 В 1 н/о н/о +18.8 +1.3 31 +20 +20 1021.8 1015.7
07 22.06 С 2 н/о н/о +20.9 +2.2 29 +22 +22 комфорт 1021.9 1015.8
09 22.06 С 4 н/о н/о +15.7 +1.1 37 +15 +15 1021.6 1015.5
10 22.06 СВ 3 н/о н/о +14.2 +0.8 40 +13 +13 1022.0 1015.9
11 22.06 штиль 0 н/о н/о +14.3 +1.6 42 +14 +14 1022.6 1016.5
12 22.06 С 2 н/о н/о +11.8 +0.6 46 +12 +12 1022.9 1016.8
14 22.06 СВ 3 н/о н/о +11.6 +1.0 48 +10 +10 1021.7 1015.6
13 22.06 В 4 н/о н/о +10.2 -0.3 48 +8 +8 1022.4 1016.3
15 22.06 С 1 н/о н/о +10.1 +0.4 51 +11 +11 1021.7 1015.6
16 22.06 СВ 2 н/о н/о +10.1 +0.4 51 +9 +9 1021.2 1015.1
17 22.06 ЮВ 1 н/о н/о +11.7 +1.9 51 +12 +12 1021.3 1015.2
18 22.06 ЮВ 2 н/о н/о +11.1 +1.4 51 +10 +10 1021.2 1015.1
20 22.06 С 3 н/о н/о +10.0 +1.1 54 +8 +8 1020.4 1014.3
19 22.06 ЮВ 3 н/о н/о +10.8 +1.6 53 +9 +9 1021.1 1015.0
21 22.06 ЮВ 3 н/о н/о +9.1 +1.0 57 +7 +7 1021.0 1014.9
22 22.06 С 3 н/о н/о +8.7 +0.4 56 +7 +7 1021.4 1015.3
23 22.06 ЮВ 3 н/о н/о +13.0 +2.3 48 +12 +12 1021.8 1015.7
00 23.06 СВ 3 н/о н/о +15.9 +3.0 42 +16 +16 1022.2 1016.1
02 23.06 С 3 н/о н/о +21.3 +2.6 29 +21 +21 комфорт 1021.4 1015.3
01 23.06 С 3 н/о н/о +18.4 +2.7 35 +19 +19 1022.2 1016.1
03 23.06 СЗ 4 н/о н/о +22.3 +2.4 27 +22 +22 комфорт 1020.7 1014.6
04 23.06 СЗ 4 н/о н/о +23.6 +2.4 25 +23 +23 комфорт 1019.8 1013.7
05 23.06 СЗ 4 н/о н/о +23.9 +2.7 25 +23 +23 комфорт 1018.8 1012.7
06 23.06 З 3 н/о н/о +23.9 +2.7 25 +23 +23 комфорт 1018.2 1012.1
08 23.06 СЗ 3 н/о н/о +20.5 +2.8 31 +21 +21 комфорт 1018.3 1012.2
07 23.06 СЗ 3 н/о н/о +23.3 +3.3 27 +23 +23 комфорт 1018.1 1012.0
09 23.06 З 3 н/о н/о +18.5 +2.4 34 +19 +19 1018.6 1012.5
10 23.06 З 2 н/о н/о +17.3 +2.1 36 +18 +18 1019.0 1012.9
11 23.06 С 1 н/о н/о +15.3 +1.4 39 +17 +17 1019.3 1013.2
12 23.06 штиль 0 н/о н/о +14.0 +0.6 40 +14 +14 1019.6 1013.5
14 23.06 С 4 н/о н/о +12.6 +0.7 44 +11 +11 1019.5 1013.4
13 23.06 С 3 н/о н/о +13.0 +1.0 44 +12 +12 1019.7 1013.6
15 23.06 С 3 н/о н/о +12.8 +1.2 45 +12 +12 1018.6 1012.5
16 23.06 С 4 н/о н/о +12.1 +1.7 49 +11 +11 1018.4 1012.3
17 23.06 С 2 н/о н/о +10.9 +1.4 52 +10 +10 1018.1 1012.0
18 23.06 В 1 н/о н/о +9.0 +0.2 54 +10 +10 1017.7 1011.6
20 23.06 С 2 н/о н/о +8.6 +0.6 57 +8 +8 1018.2 1012.1
19 23.06 С 1 н/о н/о +8.8 0.0 54 +10 +10 1017.8 1011.7
21 23.06 С 4 н/о н/о +8.0 +0.5 59 +5 +5 1018.9 1012.8
22 23.06 В 4 н/о н/о +7.4 +0.6 62 +5 +5 1019.5 1013.4
23 23.06 СВ 3 н/о н/о +11.4 +2.2 53 +10 +10 1020.0 1013.9
00 24.06 С 2 н/о н/о +16.2 +2.6 40 +16 +16 1020.8 1014.7
02 24.06 С 3 н/о н/о +20.2 +2.5 31 +21 +21 комфорт 1019.8 1013.7
01 24.06 С 2 н/о н/о +17.4 +2.6 37 +18 +18 1020.5 1014.4
03 24.06 СЗ 4 н/о н/о +22.5 +3.1 28 +22 +22 комфорт 1018.9 1012.8
04 24.06 З 5 н/о н/о +23.2 +3.2 27 +23 +23 комфорт 1018.0 1011.9
05 24.06 ЮЗ 4 н/о н/о +22.6 +3.2 28 +22 +22 комфорт 1017.4 1011.3
06 24.06 СЗ 3 н/о н/о +23.1 +3.6 28 +23 +23 комфорт 1017.3 1011.2
08 24.06 ЮЗ 4 н/о н/о +20.5 +3.7 33 +21 +21 комфорт 1017.7 1011.6
07 24.06 СЗ 4 н/о н/о +22.5 +3.6 29 +22 +22 комфорт 1017.4 1011.3
09 24.06 СВ 3 н/о н/о +17.1 +4.4 43 +17 +17 1018.0 1011.9
10 24.06 Ю 5 н/о н/о +15.7 +4.7 48 +15 +15 1018.4 1012.3
11 24.06 С 4 н/о н/о +14.2 +4.2 51 +13 +13 1018.8 1012.7
12 24.06 ЮЗ 3 н/о н/о +13.4 +4.0 53 +12 +12 1019.0 1012.9

 

Местоположение метеостанции Marree Aero (Южная Австралия, Австралия): широта -29.66 долгота 138.06 высота над уровнем моря 51 м.

В архиве по умолчанию представлена погода в Marree Aero за последнюю неделю. Архивные данные за месяц целиком и за предыдущие месяцы, начиная с января 2011 года, Вы можете получить, выбрав интересующий диапазон дат из раскрывающегося списка и нажав кнопку "Ввод!".

Внимание! Время в таблицах - всемирное. Для получения местного времени необходимо прибавить поправку, которая в Marree Aero равна 9.5 ч.

Смотрите также архив погоды в соседних городах и на ближайших метеорологических станциях:

Погода в Leigh Creek Airport (Южная Австралия, Австралия) (110 км)
Погода в Olympic Dam Aerodrome (Южная Австралия, Австралия) (146 км)
Погода в Woomera Aerodrome (Южная Австралия, Австралия) (205 км)
Погода в Moomba Airport (Южная Австралия, Австралия) (271 км)
Погода в Port Augusta Arid Lands (Южная Австралия, Австралия) (320 км)
Погода в Coober Pedy Airport (Южная Австралия, Австралия) (332 км)
Погода в Oodnadatta Airport (Южная Австралия, Австралия) (346 км)
Погода в Yunta Airstrip (Южная Австралия, Австралия) (354 км)
Погода в Tarcoola Aero (Южная Австралия, Австралия) (355 км)
Погода в Whyalla Airport (Южная Австралия, Австралия) (383 км)

Пояснения к столбцам:

Ветер - указаны скорость ветра в м/с - средняя за 10 мин, порывы в срок и между сроками (в фигурных скобках) и направление, откуда дует ветер: С - северный, СВ - северо-восточный, В - восточный, ЮВ - юго-восточный, Ю - южный, ЮЗ - юго-западный, З - западный, СЗ - северо-западный.
Видимость - горизонтальная дальность видимости в метрах или километрах. При видимости от 1 до 10 км при отсутствии осадков обычно наблюдается дымка, при ухудшении видимости до 1 км и менее - туман. В сухую погоду видимость может ухудшаться дымом, пылью или мглою.
Явления - указаны атмосферные явления, наблюдавшиеся в срок или в последний час перед сроком; фигурными скобками обозначены явления, наблюдавшиеся между сроками (за 1-3 часа до срока); квадратными скобками обозначены град или гололедные отложения с указанием их диаметра в мм.
Облачность - указаны через наклонную черту общая и нижняя облачность в баллах и высота нижней границы облаков в метрах; квадратными скобками обозначены формы облаков: Ci - перистые, Cs - перисто-слоистые, Cc - перисто-кучевые, Ac - высококучевые, As - высокослоистые, Sc - слоисто-кучевые, Ns - слоисто-дождевые, Cu - кучевые, Cb - кучево-дождевые. Подробнее классификацию облаков см. в Атласе облаков (PDF).
T - Температура воздуха - температура, измеренная на высоте 2 м над землей.
Td - Температура точки росы - температура, при понижении до которой содержащийся в воздухе водяной пар достигнет насыщения.
f - Относительная влажность воздуха - влажноcть воздуха, измеренная на высоте 2 м над землей.
Te - Эффективная температура - температура, которую ощущает одетый по сезону человек в тени. Характеристика душности погоды. При расчете учитывается влияние влажности воздуха и скорости ветра на теплоощущения человека.
Tes - Эффективная температура на солнце - температура, которую ощущает человек, с поправкой на солнечный нагрев. Характеристика знойности погоды. Зависит от высоты солнца над горизонтом, облачности и скорости ветра. Ночью, в пасмурную погоду, а также при ветре 12 м/с и более поправка равна нулю.
P - Атмосферное давление - приведенное к уровню моря атмосферное давление.
Po - Атмосферное давление - измеренное на уровне метеостанции атмосферное давление.
Tmin - Минимальная температура - минимум температуры воздуха на высоте 2 м над землей.
Tmax - Максимальная температура - максимум температуры воздуха на высоте 2 м над землей.
R - Количество осадков - Количество выпавших осадков за период времени, мм. При наведении курсора мыши на число - период времени, за который выпало указанное количество осадков.
R24 - Количество осадков - Количество выпавших осадков за 24 часа, мм.
S - Снежный покров - Высота снежного покрова, см. При наведении курсора мыши на число - состояние снежного покрова и степень покрытия местности в баллах.